Regional Weather Roundup
Issued by NWS

Home | Current Version | Previous Version | Graphics & Text | Print | Product List | Glossary On
Versions: 1 2 3 4 5 6 7 8 9 10 11 12 13 14 15 16 17 18 19 20 21 22 23 24 25 26 27 28 29 30 31 32 33 34 35 36 37 38 39 40 41 42 43 44 45 46 47 48 49 50
000
ASUS43 KFSD 280602
RWRSD

WEATHER ROUNDUP FOR SOUTH DAKOTA
NATIONAL WEATHER SERVICE SIOUX FALLS SD
100 AM CDT FRI APR 28 2017

NOTE: "FAIR" INDICATES FEW OR NO CLOUDS BELOW 12,000 FEET WITH NO
SIGNIFICANT WEATHER AND/OR OBSTRUCTIONS TO VISIBILITY.


SDZ001>005-009-010-012>017-280700-
NORTHWEST AND NORTH CENTRAL SOUTH DAKOTA

CITY           SKY/WX    TMP DP  RH WIND       PRES   REMARKS
BUFFALO          N/A     37  27  67 E12       29.72R
FAITH            N/A     33  29  85 E6        29.80R WCI  28
MOBRIDGE       CLEAR     39  24  55 E9        29.81R
$$

SDZ012>016-024>037-041>051-057-063-072>074-280700-
SOUTHWEST AND SOUTH CENTRAL SOUTH DAKOTA

CITY           SKY/WX    TMP DP  RH WIND       PRES   REMARKS
RAPID CTY ARPT CLOUDY    39  31  72 E7        29.76R
PIERRE         CLEAR     32  27  81 E5        29.80R WCI  27
CUSTER         LGT SNOW  30  27  88 E10       29.68S FOG     WCI  21
ELLSWORTH AFB  CLOUDY    39  33  77 SE6       29.76R
PHILIP         CLOUDY    34  31  88 NE7       29.77S WCI  28
PINE RIDGE     LGT RAIN  41  39  93 E14       29.69S
SPEARFISH      CLOUDY    36  32  87 E8        29.75R
WINNER         MOCLDY    37  31  78 E10       29.78S
$$

SDZ004>011-016>023-039-040-280700-
NORTHEAST SOUTH DAKOTA

CITY           SKY/WX    TMP DP  RH WIND       PRES   REMARKS
ABERDEEN       CLEAR     27  24  89 S7        29.86R WCI  19
WATERTOWN      CLEAR     31  27  85 SW3       29.81S
BROOKINGS      CLEAR     30  26  85 S7        29.84R WCI  23
SISSETON         N/A     34  30  85 N9        29.82R WCI  27
$$

SDZ017-020-022-023-036>040-048>070-280700-
SOUTHEAST SOUTH DAKOTA

CITY           SKY/WX    TMP DP  RH WIND       PRES   REMARKS
SIOUX FALLS    CLEAR     32  28  85 E6        29.85R WCI  26
HURON          CLEAR     32  27  81 SE5       29.84R WCI  27
CHAMBERLAIN    CLEAR     36  31  82 NE6       29.81S
MITCHELL       CLEAR     34  28  79 SE8       29.84R WCI  27
YANKTON        CLEAR     37  28  70 NE13G18   29.83R
$$

ABBREVIATIONS USED IN REMARKS
   TC - TEMPERATURE IN CELSIUS
  WCI - WIND CHILL INDEX
   HX - HEAT INDEX
  VSB - VISIBILITY





USA.gov is the U.S. government's official web portal to all federal, state and local government web resources and services.